Shreveport Downtown, LA

2:48 AM CDT on August 21, 2017 (GMT -0500)
Shreveport Downtown

Weather History for KDTN - February, 2014

Change the Weather History Date:

Sunday, February 9, 2014

  Actual Average (KBAD) Record (KBAD)
Temperature  
Mean Temperature 42 °F -  
Max Temperature 50 °F 56 °F 75 °F (2000)
Min Temperature 33 °F 38 °F 26 °F (2011)
Degree Days  
Heating Degree Days 24    
Moisture  
Dew Point 40 °F    
Average Humidity 94    
Maximum Humidity 100    
Minimum Humidity 82    
Precipitation  
Precipitation 0.00 in - - ()
Sea Level Pressure  
Sea Level Pressure 30.11 in    
Wind  
Wind Speed 2 mph (ENE)    
Max Wind Speed 9 mph    
Max Gust Speed -    
Visibility 4 miles    
Events Fog    
Averages and records for this station are not official NWS values.
T = Trace of Precipitation, MM = Missing Value Source: NWS Daily Summary

Daily Weather History Graph

Daily Weather History Graph

Search for Another Location

Airport or City:

Trip Planner

Search our weather history database for the weather conditions in past years. The results will help you decide how hot, cold, wet, or windy it might be!

Date:

Astronomy

Feb. 09, 2014 Rise Set
Actual Time 7:03 AM CST 5:55 PM CST
Civil Twilight 6:37 AM CST 6:20 PM CST
Nautical Twilight 6:08 AM CST 6:49 PM CST
Astronomical Twilight 5:40 AM CST 7:18 PM CST
Moon 1:41 PM CST (2/9) 3:03 AM CST (2/9)
Length of Visible Light 11h 42m
Length of Day
10h 52m
Waxing Gibbous, 77% of the Moon is Illuminated
Feb 9
Waxing Gibbous
Feb 14
Full
Feb 22
Last Quarter
Mar 1
New
Mar 8
First Quarter

Hourly Weather History & Observations

Time (CST) Temp. Windchill Dew Point Humidity Pressure Visibility Wind Dir Wind Speed Gust Speed Precip Events Conditions
12:03 AM 35.6 °F - 35.6 °F 100% 30.12 in 1.0 mi Calm Calm - N/A   Mostly Cloudy
12:10 AM 35.6 °F - 35.6 °F 100% 30.11 in 0.5 mi Calm Calm - N/A Fog Fog
12:25 AM 35.6 °F - 35.6 °F 100% 30.13 in 1.2 mi Calm Calm - N/A   Clear
12:34 AM 35.6 °F - 35.6 °F 100% 30.13 in 2.5 mi Calm Calm - N/A   Partly Cloudy
12:45 AM 35.6 °F - 33.8 °F 93% 30.12 in 1.0 mi Calm Calm - N/A   Mist
12:53 AM 34.0 °F - 34.0 °F 100% 30.13 in 0.5 mi Calm Calm - N/A Fog Fog
1:43 AM 33.8 °F - 32.0 °F 93% 30.12 in 0.2 mi Calm Calm - N/A Fog Fog
1:53 AM 34.0 °F - 33.1 °F 96% 30.12 in 1.2 mi Calm Calm - N/A   Overcast
1:57 AM 33.8 °F - 33.8 °F 100% 30.12 in 3.0 mi Calm Calm - N/A   Overcast
2:08 AM 33.8 °F - 33.8 °F 100% 30.13 in 1.8 mi Calm Calm - N/A   Overcast
2:19 AM 35.6 °F - 33.8 °F 93% 30.12 in 3.0 mi Calm Calm - N/A   Overcast
2:35 AM 35.6 °F - 35.6 °F 100% 30.12 in 4.0 mi Calm Calm - N/A   Overcast
2:53 AM 39.0 °F - 37.9 °F 96% 30.11 in 4.0 mi Calm Calm - N/A   Overcast
3:40 AM 39.2 °F - 39.2 °F 100% 30.10 in 2.0 mi Calm Calm - N/A   Overcast
3:47 AM 41.0 °F - 41.0 °F 100% 30.10 in 1.8 mi Calm Calm - N/A   Overcast
3:53 AM 41.0 °F - 41.0 °F 100% 30.10 in 1.5 mi Calm Calm - N/A   Overcast
4:53 AM 41.0 °F - 41.0 °F 100% 30.11 in 1.0 mi Calm Calm - N/A   Overcast
5:19 AM 41.0 °F - 39.2 °F 93% 30.10 in 0.8 mi Calm Calm - N/A   Overcast
5:42 AM 41.0 °F - 41.0 °F 100% 30.11 in 1.0 mi Calm Calm - N/A   Mist
5:53 AM 41.0 °F - 39.9 °F 96% 30.12 in 1.2 mi Calm Calm - N/A   Overcast
6:53 AM 42.1 °F - 41.0 °F 96% 30.13 in 1.2 mi Calm Calm - N/A   Overcast
7:53 AM 42.1 °F - 42.1 °F 100% 30.13 in 0.8 mi Calm Calm - N/A   Overcast
8:14 AM 42.8 °F 41.1 °F 42.8 °F 100% 30.14 in 1.0 mi NE 3.5 mph - N/A   Overcast
8:53 AM 43.0 °F 39.5 °F 42.1 °F 97% 30.13 in 1.5 mi East 5.8 mph - N/A   Overcast
9:09 AM 42.8 °F 41.1 °F 42.8 °F 100% 30.14 in 2.0 mi ENE 3.5 mph - N/A   Overcast
9:53 AM 45.0 °F - 43.0 °F 93% 30.17 in 2.5 mi Calm Calm - N/A   Overcast
10:18 AM 44.6 °F - 42.8 °F 93% 30.16 in 3.0 mi Calm Calm - N/A   Overcast
10:25 AM 44.6 °F 43.1 °F 42.8 °F 93% 30.15 in 3.0 mi East 3.5 mph - N/A   Overcast
10:53 AM 46.0 °F 43.1 °F 44.1 °F 93% 30.16 in 4.0 mi ESE 5.8 mph - N/A   Overcast
11:53 AM 46.0 °F 42.5 °F 43.0 °F 89% 30.14 in 5.0 mi SE 6.9 mph - N/A   Overcast
12:53 PM 46.9 °F - 44.1 °F 90% 30.12 in 5.0 mi Calm Calm - N/A   Overcast
1:53 PM 48.9 °F - 45.0 °F 86% 30.08 in 7.0 mi ESE 5.8 mph - N/A   Overcast
2:53 PM 48.9 °F - 45.0 °F 86% 30.05 in 7.0 mi SE 5.8 mph - N/A   Overcast
3:53 PM 50.0 °F - 45.0 °F 83% 30.05 in 9.0 mi ESE 3.5 mph - N/A   Overcast
4:02 PM 50.0 °F - 44.6 °F 82% 30.05 in 9.0 mi Calm Calm - N/A   Overcast
4:53 PM 50.0 °F - 45.0 °F 83% 30.07 in 9.0 mi NNE 4.6 mph - N/A   Overcast
5:27 PM 48.2 °F - 44.6 °F 87% 30.06 in 9.0 mi NE 6.9 mph - N/A   Overcast
5:53 PM 48.9 °F - 45.0 °F 86% 30.06 in 10.0 mi NE 5.8 mph - N/A   Overcast
6:12 PM 48.2 °F - 44.6 °F 87% 30.07 in 10.0 mi NNE 4.6 mph - N/A   Overcast
6:23 PM 46.4 °F 42.9 °F 42.8 °F 87% 30.07 in 8.0 mi NNE 6.9 mph - N/A   Overcast
6:53 PM 46.0 °F 43.1 °F 43.0 °F 89% 30.08 in 6.0 mi NNE 5.8 mph - N/A   Overcast
7:53 PM 43.0 °F 37.7 °F 41.0 °F 93% 30.11 in 5.0 mi NNE 9.2 mph - N/A   Overcast
8:53 PM 42.1 °F 38.4 °F 39.9 °F 92% 30.13 in 3.0 mi NNE 5.8 mph - N/A   Overcast
9:06 PM 42.8 °F 37.5 °F 39.2 °F 87% 30.12 in 3.0 mi NNE 9.2 mph - N/A   Overcast
9:35 PM 41.0 °F 37.1 °F 39.2 °F 93% 30.12 in 2.5 mi NNE 5.8 mph - N/A   Overcast
9:51 PM 41.0 °F 36.4 °F 39.2 °F 93% 30.13 in 3.0 mi NE 6.9 mph - N/A   Overcast
9:53 PM 41.0 °F 36.4 °F 39.9 °F 96% 30.13 in 3.0 mi NE 6.9 mph - N/A   Overcast
10:53 PM 39.9 °F 35.1 °F 39.0 °F 97% 30.15 in 4.0 mi NNE 6.9 mph - N/A   Overcast
11:18 PM 39.2 °F 34.2 °F 39.2 °F 100% 30.14 in 2.5 mi NE 6.9 mph - N/A   Overcast
11:53 PM 39.9 °F 35.1 °F 37.9 °F 93% 30.15 in 2.0 mi NE 6.9 mph - N/A   Overcast